Mount Gambier Airport
YMTG : now visible

Airfield :











YOU CAN JOIN US ON...

 
LOGIN :

Register | Disclaimer

   EN    FR    IT 

 









Legend :    VFR   Marginal VFR   IFR   Intensive IFR   Very Intensive IFR
Visi :
Ceiling :
>= 8 km
>= 3000ft
5 to 8 km
1000 to 3000 ft
1500m to 5 km
500 to 1000 ft
800 to 1500m
200 to 500 ft
< 800m
< 200 ft
Symbols :   Thunderstorms  Fog  Heavy snow  Heavy precipitations  Wind > 20 kt






- Airport Elevation : 212 ft
- IATA code : MGB


YMTG - Mount Gambier

CURRENT METAR :
  • 261000Z AUTO 28008KT 9999 // SCT028 SCT032 SCT043 08/07 Q1021

EXPIRED METARs :
  • 260900Z AUTO 27009KT 9999 // SCT022 BKN027 BKN034 09/07 Q1021
  • 260800Z AUTO 26010KT 9999 -SHRA SCT023 BKN027 OVC036 09/08 Q1020

TAF N/A
YMMM FIR / Oceania



MET'MAP, your aeronautical weather chart ! - Copyright ORBIFLY December 2007 - Disclaimer

ORBIFLY MET'MAP TEAM :

Programming & Development : Alexandra Zaïnal
Concept & original design : Baudouin d'Aumeries
Assistance for programming : Marc-Olivier Méhu
Technical & hardware support : Manuel Goepfert

Contact : metmap@orbifly.com




SOURCES & CREDITS :

   NOAA       Earth
Advisory